Location: Brede
(50.9167°N, 0.6000°E)
Time: 18:55:41
(UTC+00:00)

Vanguard 1 Rocket - Pass Details

Date: 02 December 2020
Orbit: 655 x 4221 km, 34.3° (Epoch: 17 January)

Event Time Altitude Azimuth Distance (km) Brightness Sun altitude
Exits shadow 04:27:08 31° 240° (WSW) 5,144 10.7 -29.4°
Maximum altitude 04:35:55 42° 200° (SSW) 3,989 10.4 -28.0°
Drops below altitude 10° 04:48:53 10° 135° (SE) 4,636 11.6 -26.0°
Sets 04:51:58 0° 128° (SE) 5,244 12.1 -25.5°
